owner,sensor,date,latitude,longitude,sea_surface_height_above_sea_level,qcFlag 
TCOON,ioos:station:TCOON:068:1,2017-10-01T00:18:00Z,27.2970,-97.4049,4.48,1111122 
TCOON,ioos:station:TCOON:068:1,2017-10-01T01:18:00Z,27.2970,-97.4049,4.485,1111122 
TCOON,ioos:station:TCOON:068:1,2017-10-01T02:18:00Z,27.2970,-97.4049,4.493,1111122 
TCOON,ioos:station:TCOON:068:1,2017-10-01T03:18:00Z,27.2970,-97.4049,4.496,1111122 
TCOON,ioos:station:TCOON:068:1,2017-10-01T04:18:00Z,27.2970,-97.4049,4.495,1111122 
TCOON,ioos:station:TCOON:068:1,2017-10-01T05:18:00Z,27.2970,-97.4049,4.494,1111122 
TCOON,ioos:station:TCOON:068:1,2017-10-01T06:18:00Z,27.2970,-97.4049,4.499,1111122 
TCOON,ioos:station:TCOON:068:1,2017-10-01T07:18:00Z,27.2970,-97.4049,4.497,1111122 
TCOON,ioos:station:TCOON:068:1,2017-10-01T08:18:00Z,27.2970,-97.4049,4.498,1111122 
TCOON,ioos:station:TCOON:068:1,2017-10-01T09:18:00Z,27.2970,-97.4049,4.495,1111122 
TCOON,ioos:station:TCOON:068:1,2017-10-01T10:18:00Z,27.2970,-97.4049,4.493,1111122 
TCOON,ioos:station:TCOON:068:1,2017-10-01T11:18:00Z,27.2970,-97.4049,4.495,1111122 
TCOON,ioos:station:TCOON:068:1,2017-10-01T12:18:00Z,27.2970,-97.4049,4.492,1111122 
TCOON,ioos:station:TCOON:068:1,2017-10-01T13:18:00Z,27.2970,-97.4049,4.488,1111122 
TCOON,ioos:station:TCOON:068:1,2017-10-01T14:18:00Z,27.2970,-97.4049,4.485,1111122 
TCOON,ioos:station:TCOON:068:1,2017-10-01T15:18:00Z,27.2970,-97.4049,4.484,1111122 
TCOON,ioos:station:TCOON:068:1,2017-10-01T16:18:00Z,27.2970,-97.4049,4.477,1111122 
TCOON,ioos:station:TCOON:068:1,2017-10-01T17:18:00Z,27.2970,-97.4049,4.473,1111122 
TCOON,ioos:station:TCOON:068:1,2017-10-01T18:18:00Z,27.2970,-97.4049,4.471,1111122 
TCOON,ioos:station:TCOON:068:1,2017-10-01T19:18:00Z,27.2970,-97.4049,4.47,1111122 
TCOON,ioos:station:TCOON:068:1,2017-10-01T20:18:00Z,27.2970,-97.4049,4.475,1111122 
TCOON,ioos:station:TCOON:068:1,2017-10-01T21:18:00Z,27.2970,-97.4049,4.474,1111122 
TCOON,ioos:station:TCOON:068:1,2017-10-01T22:18:00Z,27.2970,-97.4049,4.494,1111122 
TCOON,ioos:station:TCOON:068:1,2017-10-01T23:18:00Z,27.2970,-97.4049,4.496,1111122 
TCOON,ioos:station:TCOON:068:1,2017-10-02T00:18:00Z,27.2970,-97.4049,4.485,1111122 
TCOON,ioos:station:TCOON:068:1,2017-10-02T01:18:00Z,27.2970,-97.4049,4.482,1111122 
TCOON,ioos:station:TCOON:068:1,2017-10-02T02:18:00Z,27.2970,-97.4049,4.482,1111122 
TCOON,ioos:station:TCOON:068:1,2017-10-02T03:18:00Z,27.2970,-97.4049,4.481,1111122 
TCOON,ioos:station:TCOON:068:1,2017-10-02T04:18:00Z,27.2970,-97.4049,4.481,1111122 
TCOON,ioos:station:TCOON:068:1,2017-10-02T05:18:00Z,27.2970,-97.4049,4.48,1111122 
TCOON,ioos:station:TCOON:068:1,2017-10-02T06:48:00Z,27.2970,-97.4049,4.479,1111122 
TCOON,ioos:station:TCOON:068:1,2017-10-02T07:18:00Z,27.2970,-97.4049,4.48,1111122 
TCOON,ioos:station:TCOON:068:1,2017-10-02T08:18:00Z,27.2970,-97.4049,4.481,1111122 
TCOON,ioos:station:TCOON:068:1,2017-10-02T09:18:00Z,27.2970,-97.4049,4.478,1111122 
TCOON,ioos:station:TCOON:068:1,2017-10-02T10:18:00Z,27.2970,-97.4049,4.476,1111122 
TCOON,ioos:station:TCOON:068:1,2017-10-02T11:18:00Z,27.2970,-97.4049,4.474,1111122 
TCOON,ioos:station:TCOON:068:1,2017-10-02T12:18:00Z,27.2970,-97.4049,4.471,1111122 
TCOON,ioos:station:TCOON:068:1,2017-10-02T13:18:00Z,27.2970,-97.4049,4.47,1111122 
TCOON,ioos:station:TCOON:068:1,2017-10-02T14:18:00Z,27.2970,-97.4049,4.465,1111122 
TCOON,ioos:station:TCOON:068:1,2017-10-02T15:18:00Z,27.2970,-97.4049,4.461,1111122 
TCOON,ioos:station:TCOON:068:1,2017-10-02T16:18:00Z,27.2970,-97.4049,4.462,1111122 
TCOON,ioos:station:TCOON:068:1,2017-10-02T17:18:00Z,27.2970,-97.4049,4.459,1111122 
TCOON,ioos:station:TCOON:068:1,2017-10-02T18:18:00Z,27.2970,-97.4049,4.46,1111122 
TCOON,ioos:station:TCOON:068:1,2017-10-02T19:18:00Z,27.2970,-97.4049,4.46,1111122 
TCOON,ioos:station:TCOON:068:1,2017-10-02T20:18:00Z,27.2970,-97.4049,4.462,1111122 
TCOON,ioos:station:TCOON:068:1,2017-10-02T21:18:00Z,27.2970,-97.4049,4.464,1111122 
TCOON,ioos:station:TCOON:068:1,2017-10-02T22:18:00Z,27.2970,-97.4049,4.466,1111122 
TCOON,ioos:station:TCOON:068:1,2017-10-02T23:18:00Z,27.2970,-97.4049,4.468,1111122 
TCOON,ioos:station:TCOON:068:1,2017-10-03T00:18:00Z,27.2970,-97.4049,4.47,1111122 
TCOON,ioos:station:TCOON:068:1,2017-10-03T01:18:00Z,27.2970,-97.4049,4.475,1111122 
TCOON,ioos:station:TCOON:068:1,2017-10-03T02:18:00Z,27.2970,-97.4049,4.483,1111122 
TCOON,ioos:station:TCOON:068:1,2017-10-03T03:18:00Z,27.2970,-97.4049,4.486,1111122 
TCOON,ioos:station:TCOON:068:1,2017-10-03T04:18:00Z,27.2970,-97.4049,4.488,1111122 
TCOON,ioos:station:TCOON:068:1,2017-10-03T05:18:00Z,27.2970,-97.4049,4.486,1111122 
TCOON,ioos:station:TCOON:068:1,2017-10-03T06:18:00Z,27.2970,-97.4049,4.482,1111122 
TCOON,ioos:station:TCOON:068:1,2017-10-03T07:18:00Z,27.2970,-97.4049,4.478,1111122 
TCOON,ioos:station:TCOON:068:1,2017-10-03T08:18:00Z,27.2970,-97.4049,4.48,1111122 
TCOON,ioos:station:TCOON:068:1,2017-10-03T09:18:00Z,27.2970,-97.4049,4.48,1111122 
TCOON,ioos:station:TCOON:068:1,2017-10-03T11:30:00Z,27.2970,-97.4049,4.489,1111122 
TCOON,ioos:station:TCOON:068:1,2017-10-03T12:18:00Z,27.2970,-97.4049,4.491,1111122 
TCOON,ioos:station:TCOON:068:1,2017-10-03T13:18:00Z,27.2970,-97.4049,4.498,1111122 
TCOON,ioos:station:TCOON:068:1,2017-10-03T14:18:00Z,27.2970,-97.4049,4.506,1111122 
TCOON,ioos:station:TCOON:068:1,2017-10-03T15:18:00Z,27.2970,-97.4049,4.51,1111122 
TCOON,ioos:station:TCOON:068:1,2017-10-03T16:18:00Z,27.2970,-97.4049,4.524,1111122 
TCOON,ioos:station:TCOON:068:1,2017-10-03T17:18:00Z,27.2970,-97.4049,4.5,1111122 
TCOON,ioos:station:TCOON:068:1,2017-10-03T18:18:00Z,27.2970,-97.4049,4.49,1111122 
TCOON,ioos:station:TCOON:068:1,2017-10-03T19:18:00Z,27.2970,-97.4049,4.486,1111122 
TCOON,ioos:station:TCOON:068:1,2017-10-03T20:18:00Z,27.2970,-97.4049,4.486,1111122 
TCOON,ioos:station:TCOON:068:1,2017-10-03T21:18:00Z,27.2970,-97.4049,4.492,1111122 
TCOON,ioos:station:TCOON:068:1,2017-10-03T22:18:00Z,27.2970,-97.4049,4.495,1111122 
TCOON,ioos:station:TCOON:068:1,2017-10-03T23:18:00Z,27.2970,-97.4049,4.516,1111122 
TCOON,ioos:station:TCOON:068:1,2017-10-04T00:18:00Z,27.2970,-97.4049,4.521,1111122 
TCOON,ioos:station:TCOON:068:1,2017-10-04T01:18:00Z,27.2970,-97.4049,4.527,1111122 
TCOON,ioos:station:TCOON:068:1,2017-10-04T02:18:00Z,27.2970,-97.4049,4.545,1111122 
TCOON,ioos:station:TCOON:068:1,2017-10-04T03:18:00Z,27.2970,-97.4049,4.528,1111122 
TCOON,ioos:station:TCOON:068:1,2017-10-04T04:18:00Z,27.2970,-97.4049,4.52,1111122 
TCOON,ioos:station:TCOON:068:1,2017-10-04T05:18:00Z,27.2970,-97.4049,4.52,1111122 
TCOON,ioos:station:TCOON:068:1,2017-10-04T06:18:00Z,27.2970,-97.4049,4.525,1111122 
TCOON,ioos:station:TCOON:068:1,2017-10-04T07:18:00Z,27.2970,-97.4049,4.527,1111122 
TCOON,ioos:station:TCOON:068:1,2017-10-04T08:18:00Z,27.2970,-97.4049,4.529,1111122 
TCOON,ioos:station:TCOON:068:1,2017-10-04T09:18:00Z,27.2970,-97.4049,4.541,1111122 
TCOON,ioos:station:TCOON:068:1,2017-10-04T11:12:00Z,27.2970,-97.4049,4.529,1111122 
TCOON,ioos:station:TCOON:068:1,2017-10-04T12:18:00Z,27.2970,-97.4049,4.548,1111122 
TCOON,ioos:station:TCOON:068:1,2017-10-04T13:18:00Z,27.2970,-97.4049,4.565,1111122 
TCOON,ioos:station:TCOON:068:1,2017-10-04T14:18:00Z,27.2970,-97.4049,4.573,1111122 
TCOON,ioos:station:TCOON:068:1,2017-10-04T15:18:00Z,27.2970,-97.4049,4.571,1111122 
TCOON,ioos:station:TCOON:068:1,2017-10-04T16:18:00Z,27.2970,-97.4049,4.574,1111122 
TCOON,ioos:station:TCOON:068:1,2017-10-04T17:18:00Z,27.2970,-97.4049,4.561,1111122 
TCOON,ioos:station:TCOON:068:1,2017-10-04T18:18:00Z,27.2970,-97.4049,4.555,1111122 
TCOON,ioos:station:TCOON:068:1,2017-10-04T19:18:00Z,27.2970,-97.4049,4.557,1111122 
TCOON,ioos:station:TCOON:068:1,2017-10-04T20:18:00Z,27.2970,-97.4049,4.563,1111122 
TCOON,ioos:station:TCOON:068:1,2017-10-04T21:18:00Z,27.2970,-97.4049,4.566,1111122 
TCOON,ioos:station:TCOON:068:1,2017-10-04T22:18:00Z,27.2970,-97.4049,4.566,1111122 
TCOON,ioos:station:TCOON:068:1,2017-10-04T23:18:00Z,27.2970,-97.4049,4.563,1111122 
TCOON,ioos:station:TCOON:068:1,2017-10-05T00:18:00Z,27.2970,-97.4049,4.562,1111122 
TCOON,ioos:station:TCOON:068:1,2017-10-05T01:18:00Z,27.2970,-97.4049,4.559,1111122 
TCOON,ioos:station:TCOON:068:1,2017-10-05T02:18:00Z,27.2970,-97.4049,4.557,1111122 
TCOON,ioos:station:TCOON:068:1,2017-10-05T03:18:00Z,27.2970,-97.4049,4.565,1111122 
TCOON,ioos:station:TCOON:068:1,2017-10-05T04:18:00Z,27.2970,-97.4049,4.578,1111122 
TCOON,ioos:station:TCOON:068:1,2017-10-05T05:18:00Z,27.2970,-97.4049,4.595,1111122 
TCOON,ioos:station:TCOON:068:1,2017-10-05T06:18:00Z,27.2970,-97.4049,4.618,1111122 
TCOON,ioos:station:TCOON:068:1,2017-10-05T07:18:00Z,27.2970,-97.4049,4.627,1111122 
TCOON,ioos:station:TCOON:068:1,2017-10-05T08:18:00Z,27.2970,-97.4049,4.633,1111122 
TCOON,ioos:station:TCOON:068:1,2017-10-05T09:18:00Z,27.2970,-97.4049,4.635,1111122 
TCOON,ioos:station:TCOON:068:1,2017-10-05T10:18:00Z,27.2970,-97.4049,4.622,1111122 
TCOON,ioos:station:TCOON:068:1,2017-10-05T11:18:00Z,27.2970,-97.4049,4.638,1111122 
TCOON,ioos:station:TCOON:068:1,2017-10-05T12:18:00Z,27.2970,-97.4049,4.633,1111122 
TCOON,ioos:station:TCOON:068:1,2017-10-05T13:18:00Z,27.2970,-97.4049,4.638,1111122 
TCOON,ioos:station:TCOON:068:1,2017-10-05T14:18:00Z,27.2970,-97.4049,4.656,1111122 
TCOON,ioos:station:TCOON:068:1,2017-10-05T15:18:00Z,27.2970,-97.4049,4.653,1111122 
TCOON,ioos:station:TCOON:068:1,2017-10-05T16:18:00Z,27.2970,-97.4049,4.637,1111122 
TCOON,ioos:station:TCOON:068:1,2017-10-05T17:30:00Z,27.2970,-97.4049,4.655,1111122 
TCOON,ioos:station:TCOON:068:1,2017-10-05T18:24:00Z,27.2970,-97.4049,4.656,1111122 
TCOON,ioos:station:TCOON:068:1,2017-10-05T19:30:00Z,27.2970,-97.4049,4.656,1111122 
TCOON,ioos:station:TCOON:068:1,2017-10-05T20:18:00Z,27.2970,-97.4049,4.661,1111122 
TCOON,ioos:station:TCOON:068:1,2017-10-05T21:18:00Z,27.2970,-97.4049,4.666,1111122 
TCOON,ioos:station:TCOON:068:1,2017-10-05T22:18:00Z,27.2970,-97.4049,4.665,1111122 
TCOON,ioos:station:TCOON:068:1,2017-10-05T23:18:00Z,27.2970,-97.4049,4.667,1111122 
TCOON,ioos:station:TCOON:068:1,2017-10-06T00:18:00Z,27.2970,-97.4049,4.67,1111122 
TCOON,ioos:station:TCOON:068:1,2017-10-06T01:18:00Z,27.2970,-97.4049,4.674,1111122 
TCOON,ioos:station:TCOON:068:1,2017-10-06T02:18:00Z,27.2970,-97.4049,4.679,1111122 
TCOON,ioos:station:TCOON:068:1,2017-10-06T03:18:00Z,27.2970,-97.4049,4.682,1111122 
TCOON,ioos:station:TCOON:068:1,2017-10-06T04:18:00Z,27.2970,-97.4049,4.678,1111122 
TCOON,ioos:station:TCOON:068:1,2017-10-06T05:18:00Z,27.2970,-97.4049,4.675,1111122 
TCOON,ioos:station:TCOON:068:1,2017-10-06T06:18:00Z,27.2970,-97.4049,4.678,1111122 
TCOON,ioos:station:TCOON:068:1,2017-10-06T07:18:00Z,27.2970,-97.4049,4.691,1111122 
TCOON,ioos:station:TCOON:068:1,2017-10-06T08:18:00Z,27.2970,-97.4049,4.701,1111122 
TCOON,ioos:station:TCOON:068:1,2017-10-06T09:18:00Z,27.2970,-97.4049,4.705,1111122 
TCOON,ioos:station:TCOON:068:1,2017-10-06T10:18:00Z,27.2970,-97.4049,4.712,1111122 
TCOON,ioos:station:TCOON:068:1,2017-10-06T11:18:00Z,27.2970,-97.4049,4.71,1111122 
TCOON,ioos:station:TCOON:068:1,2017-10-06T12:18:00Z,27.2970,-97.4049,4.719,1111122 
TCOON,ioos:station:TCOON:068:1,2017-10-06T13:18:00Z,27.2970,-97.4049,4.719,1111122 
TCOON,ioos:station:TCOON:068:1,2017-10-06T14:18:00Z,27.2970,-97.4049,4.724,1111122 
TCOON,ioos:station:TCOON:068:1,2017-10-06T15:18:00Z,27.2970,-97.4049,4.73,1111122 
TCOON,ioos:station:TCOON:068:1,2017-10-06T16:18:00Z,27.2970,-97.4049,4.734,1111122 
TCOON,ioos:station:TCOON:068:1,2017-10-06T17:18:00Z,27.2970,-97.4049,4.738,1111122 
TCOON,ioos:station:TCOON:068:1,2017-10-06T18:18:00Z,27.2970,-97.4049,4.729,1111122 
TCOON,ioos:station:TCOON:068:1,2017-10-06T19:18:00Z,27.2970,-97.4049,4.723,1111122 
TCOON,ioos:station:TCOON:068:1,2017-10-06T20:18:00Z,27.2970,-97.4049,4.715,1111122 
TCOON,ioos:station:TCOON:068:1,2017-10-06T21:18:00Z,27.2970,-97.4049,4.712,1111122 
TCOON,ioos:station:TCOON:068:1,2017-10-06T22:18:00Z,27.2970,-97.4049,4.715,1111122 
TCOON,ioos:station:TCOON:068:1,2017-10-06T23:18:00Z,27.2970,-97.4049,4.718,1111122 
TCOON,ioos:station:TCOON:068:1,2017-10-07T00:18:00Z,27.2970,-97.4049,4.713,1111122 
TCOON,ioos:station:TCOON:068:1,2017-10-07T01:18:00Z,27.2970,-97.4049,4.721,1111122 
TCOON,ioos:station:TCOON:068:1,2017-10-07T02:18:00Z,27.2970,-97.4049,4.731,1111122 
TCOON,ioos:station:TCOON:068:1,2017-10-07T03:18:00Z,27.2970,-97.4049,4.732,1111122 
TCOON,ioos:station:TCOON:068:1,2017-10-07T04:18:00Z,27.2970,-97.4049,4.727,1111122 
TCOON,ioos:station:TCOON:068:1,2017-10-07T05:18:00Z,27.2970,-97.4049,4.724,1111122 
TCOON,ioos:station:TCOON:068:1,2017-10-07T06:18:00Z,27.2970,-97.4049,4.727,1111122 
TCOON,ioos:station:TCOON:068:1,2017-10-07T07:18:00Z,27.2970,-97.4049,4.736,1111122 
TCOON,ioos:station:TCOON:068:1,2017-10-07T08:18:00Z,27.2970,-97.4049,4.745,1111122 
TCOON,ioos:station:TCOON:068:1,2017-10-07T09:18:00Z,27.2970,-97.4049,4.749,1111122 
TCOON,ioos:station:TCOON:068:1,2017-10-07T10:18:00Z,27.2970,-97.4049,4.751,1111122 
TCOON,ioos:station:TCOON:068:1,2017-10-07T11:18:00Z,27.2970,-97.4049,4.75,1111122 
TCOON,ioos:station:TCOON:068:1,2017-10-07T12:18:00Z,27.2970,-97.4049,4.748,1111122 
TCOON,ioos:station:TCOON:068:1,2017-10-07T13:18:00Z,27.2970,-97.4049,4.739,1111122 
TCOON,ioos:station:TCOON:068:1,2017-10-07T14:18:00Z,27.2970,-97.4049,4.739,1111122 
TCOON,ioos:station:TCOON:068:1,2017-10-07T15:18:00Z,27.2970,-97.4049,4.742,1111122 
TCOON,ioos:station:TCOON:068:1,2017-10-07T16:18:00Z,27.2970,-97.4049,4.745,1111122 
TCOON,ioos:station:TCOON:068:1,2017-10-07T17:18:00Z,27.2970,-97.4049,4.751,1111122 
TCOON,ioos:station:TCOON:068:1,2017-10-07T18:18:00Z,27.2970,-97.4049,4.755,1111122 
TCOON,ioos:station:TCOON:068:1,2017-10-07T19:18:00Z,27.2970,-97.4049,4.752,1111122 
TCOON,ioos:station:TCOON:068:1,2017-10-07T20:18:00Z,27.2970,-97.4049,4.74,1111122 
TCOON,ioos:station:TCOON:068:1,2017-10-07T21:18:00Z,27.2970,-97.4049,4.73,1111122 
TCOON,ioos:station:TCOON:068:1,2017-10-07T22:18:00Z,27.2970,-97.4049,4.72,1111122 
TCOON,ioos:station:TCOON:068:1,2017-10-07T23:18:00Z,27.2970,-97.4049,4.721,1111122 
TCOON,ioos:station:TCOON:068:1,2017-10-08T00:18:00Z,27.2970,-97.4049,4.728,1111122 
TCOON,ioos:station:TCOON:068:1,2017-10-08T01:18:00Z,27.2970,-97.4049,4.74,1111122 
TCOON,ioos:station:TCOON:068:1,2017-10-08T02:18:00Z,27.2970,-97.4049,4.757,1111122 
TCOON,ioos:station:TCOON:068:1,2017-10-08T03:18:00Z,27.2970,-97.4049,4.761,1111122 
TCOON,ioos:station:TCOON:068:1,2017-10-08T04:18:00Z,27.2970,-97.4049,4.759,1111122 
TCOON,ioos:station:TCOON:068:1,2017-10-08T05:18:00Z,27.2970,-97.4049,4.756,1111122 
TCOON,ioos:station:TCOON:068:1,2017-10-08T06:18:00Z,27.2970,-97.4049,4.757,1111122 
TCOON,ioos:station:TCOON:068:1,2017-10-08T07:18:00Z,27.2970,-97.4049,4.761,1111122 
TCOON,ioos:station:TCOON:068:1,2017-10-08T08:18:00Z,27.2970,-97.4049,4.767,1111122 
TCOON,ioos:station:TCOON:068:1,2017-10-08T09:18:00Z,27.2970,-97.4049,4.777,1111122 
TCOON,ioos:station:TCOON:068:1,2017-10-08T10:18:00Z,27.2970,-97.4049,4.774,1111122 
TCOON,ioos:station:TCOON:068:1,2017-10-08T11:18:00Z,27.2970,-97.4049,4.769,1111122 
TCOON,ioos:station:TCOON:068:1,2017-10-08T12:18:00Z,27.2970,-97.4049,4.764,1111122 
TCOON,ioos:station:TCOON:068:1,2017-10-08T13:18:00Z,27.2970,-97.4049,4.764,1111122 
TCOON,ioos:station:TCOON:068:1,2017-10-08T14:18:00Z,27.2970,-97.4049,4.764,1111122 
TCOON,ioos:station:TCOON:068:1,2017-10-08T15:18:00Z,27.2970,-97.4049,4.764,1111122 
TCOON,ioos:station:TCOON:068:1,2017-10-08T16:18:00Z,27.2970,-97.4049,4.756,1111122 
TCOON,ioos:station:TCOON:068:1,2017-10-08T17:18:00Z,27.2970,-97.4049,4.749,1111122 
TCOON,ioos:station:TCOON:068:1,2017-10-08T18:18:00Z,27.2970,-97.4049,4.745,1111122 
TCOON,ioos:station:TCOON:068:1,2017-10-08T19:18:00Z,27.2970,-97.4049,4.741,1111122 
TCOON,ioos:station:TCOON:068:1,2017-10-08T20:18:00Z,27.2970,-97.4049,4.736,1111122 
TCOON,ioos:station:TCOON:068:1,2017-10-08T21:18:00Z,27.2970,-97.4049,4.727,1111122 
TCOON,ioos:station:TCOON:068:1,2017-10-08T22:18:00Z,27.2970,-97.4049,4.722,1111122 
TCOON,ioos:station:TCOON:068:1,2017-10-08T23:18:00Z,27.2970,-97.4049,4.717,1111122 
TCOON,ioos:station:TCOON:068:1,2017-10-09T00:18:00Z,27.2970,-97.4049,4.715,1111122 
TCOON,ioos:station:TCOON:068:1,2017-10-09T01:18:00Z,27.2970,-97.4049,4.724,1111122 
TCOON,ioos:station:TCOON:068:1,2017-10-09T02:18:00Z,27.2970,-97.4049,4.73,1111122 
TCOON,ioos:station:TCOON:068:1,2017-10-09T03:18:00Z,27.2970,-97.4049,4.736,1111122 
TCOON,ioos:station:TCOON:068:1,2017-10-09T04:18:00Z,27.2970,-97.4049,4.733,1111122 
TCOON,ioos:station:TCOON:068:1,2017-10-09T05:18:00Z,27.2970,-97.4049,4.735,1111122 
TCOON,ioos:station:TCOON:068:1,2017-10-09T06:18:00Z,27.2970,-97.4049,4.737,1111122 
TCOON,ioos:station:TCOON:068:1,2017-10-09T07:18:00Z,27.2970,-97.4049,4.742,1111122 
TCOON,ioos:station:TCOON:068:1,2017-10-09T08:18:00Z,27.2970,-97.4049,4.727,1111122 
TCOON,ioos:station:TCOON:068:1,2017-10-09T11:18:00Z,27.2970,-97.4049,4.716,1111122 
TCOON,ioos:station:TCOON:068:1,2017-10-09T12:18:00Z,27.2970,-97.4049,4.716,1111122 
TCOON,ioos:station:TCOON:068:1,2017-10-09T13:18:00Z,27.2970,-97.4049,4.714,1111122 
TCOON,ioos:station:TCOON:068:1,2017-10-09T14:18:00Z,27.2970,-97.4049,4.716,1111122 
TCOON,ioos:station:TCOON:068:1,2017-10-09T15:18:00Z,27.2970,-97.4049,4.709,1111122 
TCOON,ioos:station:TCOON:068:1,2017-10-09T16:18:00Z,27.2970,-97.4049,4.7,1111122 
TCOON,ioos:station:TCOON:068:1,2017-10-09T17:24:00Z,27.2970,-97.4049,4.698,1111122 
TCOON,ioos:station:TCOON:068:1,2017-10-09T18:18:00Z,27.2970,-97.4049,4.692,1111122 
TCOON,ioos:station:TCOON:068:1,2017-10-09T19:18:00Z,27.2970,-97.4049,4.682,1111122 
TCOON,ioos:station:TCOON:068:1,2017-10-09T20:18:00Z,27.2970,-97.4049,4.681,1111122 
TCOON,ioos:station:TCOON:068:1,2017-10-09T21:18:00Z,27.2970,-97.4049,4.685,1111122 
TCOON,ioos:station:TCOON:068:1,2017-10-09T22:18:00Z,27.2970,-97.4049,4.685,1111122 
TCOON,ioos:station:TCOON:068:1,2017-10-09T23:18:00Z,27.2970,-97.4049,4.681,1111122 
TCOON,ioos:station:TCOON:068:1,2017-10-10T00:18:00Z,27.2970,-97.4049,4.672,1111122 
TCOON,ioos:station:TCOON:068:1,2017-10-10T01:18:00Z,27.2970,-97.4049,4.674,1111122 
TCOON,ioos:station:TCOON:068:1,2017-10-10T02:18:00Z,27.2970,-97.4049,4.682,1111122 
TCOON,ioos:station:TCOON:068:1,2017-10-10T03:18:00Z,27.2970,-97.4049,4.693,1111122 
TCOON,ioos:station:TCOON:068:1,2017-10-10T04:18:00Z,27.2970,-97.4049,4.693,1111122 
TCOON,ioos:station:TCOON:068:1,2017-10-10T05:18:00Z,27.2970,-97.4049,4.691,1111122 
TCOON,ioos:station:TCOON:068:1,2017-10-10T06:18:00Z,27.2970,-97.4049,4.686,1111122 
TCOON,ioos:station:TCOON:068:1,2017-10-10T07:18:00Z,27.2970,-97.4049,4.682,1111122 
TCOON,ioos:station:TCOON:068:1,2017-10-10T08:18:00Z,27.2970,-97.4049,4.677,1111122 
TCOON,ioos:station:TCOON:068:1,2017-10-10T09:18:00Z,27.2970,-97.4049,4.676,1111122 
TCOON,ioos:station:TCOON:068:1,2017-10-10T10:18:00Z,27.2970,-97.4049,4.673,1111122 
TCOON,ioos:station:TCOON:068:1,2017-10-10T11:18:00Z,27.2970,-97.4049,4.675,1111122 
TCOON,ioos:station:TCOON:068:1,2017-10-10T12:18:00Z,27.2970,-97.4049,4.688,1111122 
TCOON,ioos:station:TCOON:068:1,2017-10-10T13:18:00Z,27.2970,-97.4049,4.682,1111122 
TCOON,ioos:station:TCOON:068:1,2017-10-10T14:18:00Z,27.2970,-97.4049,4.687,1111122 
TCOON,ioos:station:TCOON:068:1,2017-10-10T15:18:00Z,27.2970,-97.4049,4.695,1111122 
TCOON,ioos:station:TCOON:068:1,2017-10-10T16:18:00Z,27.2970,-97.4049,4.688,1111122 
TCOON,ioos:station:TCOON:068:1,2017-10-10T17:18:00Z,27.2970,-97.4049,4.671,1111122 
TCOON,ioos:station:TCOON:068:1,2017-10-10T18:18:00Z,27.2970,-97.4049,4.667,1111122 
TCOON,ioos:station:TCOON:068:1,2017-10-10T19:18:00Z,27.2970,-97.4049,4.691,1111122 
TCOON,ioos:station:TCOON:068:1,2017-10-10T20:18:00Z,27.2970,-97.4049,4.682,1111122 
TCOON,ioos:station:TCOON:068:1,2017-10-10T21:18:00Z,27.2970,-97.4049,4.699,1111122 
TCOON,ioos:station:TCOON:068:1,2017-10-10T22:18:00Z,27.2970,-97.4049,4.709,1111122 
TCOON,ioos:station:TCOON:068:1,2017-10-10T23:18:00Z,27.2970,-97.4049,4.71,1111122 
TCOON,ioos:station:TCOON:068:1,2017-10-11T00:18:00Z,27.2970,-97.4049,4.698,1111122 
TCOON,ioos:station:TCOON:068:1,2017-10-11T01:18:00Z,27.2970,-97.4049,4.704,1111122 
TCOON,ioos:station:TCOON:068:1,2017-10-11T02:18:00Z,27.2970,-97.4049,4.705,1111122 
TCOON,ioos:station:TCOON:068:1,2017-10-11T03:18:00Z,27.2970,-97.4049,4.704,1111122 
TCOON,ioos:station:TCOON:068:1,2017-10-11T04:18:00Z,27.2970,-97.4049,4.698,1111122 
TCOON,ioos:station:TCOON:068:1,2017-10-11T05:18:00Z,27.2970,-97.4049,4.694,1111122 
TCOON,ioos:station:TCOON:068:1,2017-10-11T06:18:00Z,27.2970,-97.4049,4.692,1111122 
TCOON,ioos:station:TCOON:068:1,2017-10-11T07:18:00Z,27.2970,-97.4049,4.702,1111122 
TCOON,ioos:station:TCOON:068:1,2017-10-11T08:18:00Z,27.2970,-97.4049,4.697,1111122 
TCOON,ioos:station:TCOON:068:1,2017-10-11T09:18:00Z,27.2970,-97.4049,4.699,1111122 
TCOON,ioos:station:TCOON:068:1,2017-10-11T10:18:00Z,27.2970,-97.4049,4.705,1111122 
TCOON,ioos:station:TCOON:068:1,2017-10-11T11:18:00Z,27.2970,-97.4049,4.704,1111122 
TCOON,ioos:station:TCOON:068:1,2017-10-11T12:18:00Z,27.2970,-97.4049,4.706,1111122 
TCOON,ioos:station:TCOON:068:1,2017-10-11T13:18:00Z,27.2970,-97.4049,4.71,1111122 
TCOON,ioos:station:TCOON:068:1,2017-10-11T14:18:00Z,27.2970,-97.4049,4.704,1111122 
TCOON,ioos:station:TCOON:068:1,2017-10-11T15:18:00Z,27.2970,-97.4049,4.698,1111122 
TCOON,ioos:station:TCOON:068:1,2017-10-11T16:18:00Z,27.2970,-97.4049,4.7,1111122 
TCOON,ioos:station:TCOON:068:1,2017-10-11T17:18:00Z,27.2970,-97.4049,4.699,1111122 
TCOON,ioos:station:TCOON:068:1,2017-10-11T18:18:00Z,27.2970,-97.4049,4.698,1111122 
TCOON,ioos:station:TCOON:068:1,2017-10-11T19:18:00Z,27.2970,-97.4049,4.704,1111122 
TCOON,ioos:station:TCOON:068:1,2017-10-11T20:18:00Z,27.2970,-97.4049,4.702,1111122 
TCOON,ioos:station:TCOON:068:1,2017-10-11T21:18:00Z,27.2970,-97.4049,4.713,1111122 
TCOON,ioos:station:TCOON:068:1,2017-10-11T22:18:00Z,27.2970,-97.4049,4.707,1111122 
TCOON,ioos:station:TCOON:068:1,2017-10-11T23:18:00Z,27.2970,-97.4049,4.711,1111122 
TCOON,ioos:station:TCOON:068:1,2017-10-12T00:18:00Z,27.2970,-97.4049,4.724,1111122 
TCOON,ioos:station:TCOON:068:1,2017-10-12T01:18:00Z,27.2970,-97.4049,4.706,1111122 
TCOON,ioos:station:TCOON:068:1,2017-10-12T02:18:00Z,27.2970,-97.4049,4.709,1111122 
TCOON,ioos:station:TCOON:068:1,2017-10-12T03:18:00Z,27.2970,-97.4049,4.704,1111122 
TCOON,ioos:station:TCOON:068:1,2017-10-12T04:24:00Z,27.2970,-97.4049,4.696,1111122 
TCOON,ioos:station:TCOON:068:1,2017-10-12T05:18:00Z,27.2970,-97.4049,4.686,1111122 
TCOON,ioos:station:TCOON:068:1,2017-10-12T06:18:00Z,27.2970,-97.4049,4.686,1111122 
TCOON,ioos:station:TCOON:068:1,2017-10-12T07:18:00Z,27.2970,-97.4049,4.692,1111122 
TCOON,ioos:station:TCOON:068:1,2017-10-12T08:18:00Z,27.2970,-97.4049,4.692,1111122 
TCOON,ioos:station:TCOON:068:1,2017-10-12T09:18:00Z,27.2970,-97.4049,4.695,1111122 
TCOON,ioos:station:TCOON:068:1,2017-10-12T10:18:00Z,27.2970,-97.4049,4.695,1111122 
TCOON,ioos:station:TCOON:068:1,2017-10-12T11:18:00Z,27.2970,-97.4049,4.699,1111122 
TCOON,ioos:station:TCOON:068:1,2017-10-12T12:18:00Z,27.2970,-97.4049,4.693,1111122 
TCOON,ioos:station:TCOON:068:1,2017-10-12T13:18:00Z,27.2970,-97.4049,4.694,1111122 
TCOON,ioos:station:TCOON:068:1,2017-10-12T14:18:00Z,27.2970,-97.4049,4.697,1111122 
TCOON,ioos:station:TCOON:068:1,2017-10-12T15:18:00Z,27.2970,-97.4049,4.693,1111122 
TCOON,ioos:station:TCOON:068:1,2017-10-12T16:18:00Z,27.2970,-97.4049,4.687,1111122 
TCOON,ioos:station:TCOON:068:1,2017-10-12T17:18:00Z,27.2970,-97.4049,4.676,1111122 
TCOON,ioos:station:TCOON:068:1,2017-10-12T18:18:00Z,27.2970,-97.4049,4.676,1111122 
TCOON,ioos:station:TCOON:068:1,2017-10-12T19:18:00Z,27.2970,-97.4049,4.678,1111122 
TCOON,ioos:station:TCOON:068:1,2017-10-12T20:18:00Z,27.2970,-97.4049,4.68,1111122 
TCOON,ioos:station:TCOON:068:1,2017-10-12T21:18:00Z,27.2970,-97.4049,4.678,1111122 
TCOON,ioos:station:TCOON:068:1,2017-10-12T22:18:00Z,27.2970,-97.4049,4.679,1111122 
TCOON,ioos:station:TCOON:068:1,2017-10-12T23:18:00Z,27.2970,-97.4049,4.683,1111122 
TCOON,ioos:station:TCOON:068:1,2017-10-13T00:18:00Z,27.2970,-97.4049,4.677,1111122 